• In Portugal
  • List of Countries
  • For 7 days
  • Water Temperature
  • Satellite Maps
  • Weather Map
  • Weather Widgets
  • user-avatar
    Login

    Hourly Weather Jalapa

    Today, 21 February, Wednesday

    Time Temperature Precipitation Wind Pressure Humidity
    00:00 +16°C° 0 mm 1 mps 643 mmHg 93%
    01:00 +16°C° 0 mm 1 mps 643 mmHg 93%
    02:00 +15°C° 0 mm 1 mps 642 mmHg 93%
    03:00 +15°C° 0 mm 1 mps 642 mmHg 93%
    04:00 +15°C° 0 mm 1 mps 642 mmHg 94%
    05:00 +15°C° 0 mm 1 mps 642 mmHg 94%
    06:00 +14°C° 0 mm 1 mps 642 mmHg 94%
    07:00 +18°C° 0 mm 1 mps 643 mmHg 84%
    08:00 +20°C° 0 mm 1 mps 644 mmHg 73%
    09:00 +22°C° 0 mm 1 mps 645 mmHg 63%
    10:00 +24°C° 0 mm 1 mps 646 mmHg 53%
    11:00 +26°C° 0 mm 2 mps 646 mmHg 43%
    12:00 +29°C° 0 mm 2 mps 647 mmHg 34%
    13:00 +28°C° 0 mm 2 mps 646 mmHg 34%
    14:00 +28°C° 0 mm 2 mps 646 mmHg 34%
    15:00 +28°C° 0 mm 2 mps 645 mmHg 34%
    16:00 +26°C° 0 mm 2 mps 644 mmHg 43%
    17:00 +24°C° 0 mm 2 mps 644 mmHg 51%
    18:00 +21°C° 0 mm 2 mps 643 mmHg 59%
    19:00 +19°C° 0 mm 2 mps 644 mmHg 67%
    20:00 +19°C° 0 mm 1 mps 644 mmHg 75%
    21:00 +18°C° 0 mm 1 mps 644 mmHg 83%
    22:00 +16°C° 0 mm 1 mps 644 mmHg 85%
    23:00 +16°C° 0 mm 1 mps 644 mmHg 87%

    Tomorrow, 22 February, Thursday

    Time Temperature Precipitation Wind Pressure Humidity
    00:00 +16°C° 0 mm 1 mps 644 mmHg 90%
    01:00 +16°C° 0 mm 1 mps 644 mmHg 90%
    02:00 +15°C° 0 mm 1 mps 643 mmHg 91%
    03:00 +15°C° 0 mm 1 mps 643 mmHg 92%
    04:00 +15°C° 0 mm 1 mps 643 mmHg 92%
    05:00 +15°C° 0 mm 1 mps 643 mmHg 92%
    06:00 +15°C° 0 mm 1 mps 643 mmHg 92%
    07:00 +18°C° 0 mm 1 mps 644 mmHg 82%
    08:00 +19°C° 0 mm 2 mps 645 mmHg 72%
    09:00 +21°C° 0 mm 2 mps 646 mmHg 62%
    10:00 +24°C° 0 mm 2 mps 647 mmHg 53%
    11:00 +26°C° 0 mm 2 mps 647 mmHg 43%
    12:00 +28°C° 0 mm 2 mps 647 mmHg 34%
    13:00 +28°C° 0 mm 2 mps 646 mmHg 32%
    14:00 +28°C° 0 mm 3 mps 646 mmHg 31%
    15:00 +28°C° 0 mm 3 mps 645 mmHg 29%
    16:00 +26°C° 0 mm 2 mps 644 mmHg 39%
    17:00 +24°C° 0 mm 2 mps 644 mmHg 48%
    18:00 +20°C° 0 mm 2 mps 643 mmHg 57%
    19:00 +19°C° 0 mm 2 mps 644 mmHg 65%
    20:00 +18°C° 0 mm 2 mps 644 mmHg 74%
    21:00 +16°C° 0 mm 2 mps 644 mmHg 82%
    22:00 +16°C° 0 mm 2 mps 644 mmHg 85%
    23:00 +16°C° 0 mm 2 mps 644 mmHg 88%

    Day after tomorrow, 23 February, Friday

    Time Temperature Precipitation Wind Pressure Humidity
    00:00 +15°C° 0 mm 2 mps 644 mmHg 90%
    01:00 +15°C° 0 mm 2 mps 643 mmHg 91%
    02:00 +15°C° 0 mm 2 mps 643 mmHg 91%
    03:00 +15°C° 0 mm 2 mps 643 mmHg 92%
    04:00 +15°C° 0 mm 2 mps 643 mmHg 92%
    05:00 +14°C° 0 mm 2 mps 643 mmHg 91%
    06:00 +14°C° 0 mm 2 mps 643 mmHg 91%
    07:00 +16°C° 0 mm 2 mps 644 mmHg 81%
    08:00 +18°C° 0 mm 2 mps 645 mmHg 72%
    09:00 +20°C° 0 mm 2 mps 646 mmHg 62%
    10:00 +23°C° 0 mm 2 mps 646 mmHg 56%
    11:00 +24°C° 0 mm 2 mps 646 mmHg 51%
    12:00 +26°C° 0 mm 3 mps 646 mmHg 46%
    13:00 +26°C° 0.1 mm 3 mps 646 mmHg 43%
    14:00 +27°C° 0.1 mm 3 mps 645 mmHg 41%
    15:00 +27°C° 0.1 mm 3 mps 644 mmHg 38%
    16:00 +25°C° 0.1 mm 2 mps 644 mmHg 46%
    17:00 +23°C° 0.1 mm 2 mps 643 mmHg 54%
    18:00 +20°C° 0.1 mm 2 mps 643 mmHg 62%
    19:00 +19°C° 0.1 mm 2 mps 643 mmHg 70%
    20:00 +18°C° 0.1 mm 2 mps 643 mmHg 78%
    21:00 +16°C° 0.1 mm 2 mps 643 mmHg 85%
    22:00 +16°C° 0 mm 1 mps 643 mmHg 87%
    23:00 +16°C° 0 mm 1 mps 643 mmHg 89%

    24 February, Saturday

    Time Temperature Precipitation Wind Pressure Humidity
    00:00 +15°C° 0 mm 1 mps 643 mmHg 90%
    01:00 +15°C° 0 mm 1 mps 642 mmHg 91%
    02:00 +15°C° 0 mm 1 mps 642 mmHg 91%
    03:00 +15°C° 0 mm 1 mps 641 mmHg 91%
    04:00 +14°C° 0 mm 1 mps 641 mmHg 92%
    05:00 +14°C° 0 mm 1 mps 641 mmHg 92%
    06:00 +14°C° 0 mm 1 mps 642 mmHg 92%
    07:00 +18°C° 0 mm 1 mps 643 mmHg 81%
    08:00 +20°C° 0 mm 1 mps 644 mmHg 69%
    09:00 +23°C° 0 mm 1 mps 645 mmHg 57%
    10:00 +25°C° 0.1 mm 1 mps 645 mmHg 52%
    11:00 +26°C° 0.1 mm 1 mps 645 mmHg 46%
    12:00 +28°C° 0.1 mm 1 mps 645 mmHg 40%
    13:00 +27°C° 0.9 mm 1 mps 644 mmHg 43%
    14:00 +26°C° 0.9 mm 1 mps 643 mmHg 47%
    15:00 +26°C° 0.9 mm 1 mps 642 mmHg 50%
    16:00 +24°C° 0.5 mm 1 mps 642 mmHg 57%
    17:00 +23°C° 0.5 mm 1 mps 642 mmHg 63%
    18:00 +21°C° 0.5 mm 1 mps 642 mmHg 70%
    19:00 +20°C° 0.2 mm 1 mps 642 mmHg 76%
    20:00 +19°C° 0.2 mm 1 mps 642 mmHg 82%
    21:00 +16°C° 0.2 mm 0 mps 643 mmHg 88%
    22:00 +15°C° 0.2 mm 0 mps 642 mmHg 89%
    23:00 +16°C° 0.2 mm 1 mps 642 mmHg 91%

    25 February, Sunday

    Time Temperature Precipitation Wind Pressure Humidity
    00:00 +16°C° 0.2 mm 1 mps 642 mmHg 93%
    01:00 +15°C° 0.1 mm 1 mps 642 mmHg 94%
    02:00 +14°C° 0.1 mm 0 mps 641 mmHg 94%
    03:00 +14°C° 0.1 mm 0 mps 641 mmHg 95%
    04:00 +14°C° 0 mm 0 mps 641 mmHg 94%
    05:00 +14°C° 0 mm 0 mps 641 mmHg 94%
    06:00 +13°C° 0 mm 0 mps 641 mmHg 94%
    07:00 +16°C° 0 mm 0 mps 643 mmHg 82%
    08:00 +19°C° 0 mm 0 mps 644 mmHg 70%
    09:00 +22°C° 0 mm 0 mps 645 mmHg 58%
    10:00 +24°C° 0 mm 0 mps 645 mmHg 49%
    11:00 +28°C° 0 mm 1 mps 646 mmHg 41%
    12:00 +30°C° 0 mm 1 mps 646 mmHg 32%
    13:00 +29°C° 0 mm 1 mps 645 mmHg 33%
    14:00 +28°C° 0 mm 2 mps 644 mmHg 34%
    15:00 +28°C° 0 mm 2 mps 643 mmHg 36%
    16:00 +26°C° 0.1 mm 2 mps 643 mmHg 44%
    17:00 +24°C° 0.1 mm 1 mps 643 mmHg 53%
    18:00 +22°C° 0.1 mm 1 mps 642 mmHg 62%
    19:00 +20°C° 0.4 mm 1 mps 642 mmHg 69%
    20:00 +19°C° 0.4 mm 1 mps 643 mmHg 76%
    21:00 +18°C° 0.4 mm 1 mps 643 mmHg 83%
    22:00 +16°C° 0.2 mm 1 mps 643 mmHg 86%
    23:00 +16°C° 0.2 mm 1 mps 642 mmHg 88%

    26 February, Monday

    Time Temperature Precipitation Wind Pressure Humidity
    00:00 +15°C° 0.2 mm 1 mps 642 mmHg 91%
    01:00 +15°C° 0 mm 1 mps 642 mmHg 91%
    02:00 +15°C° 0 mm 1 mps 642 mmHg 92%
    03:00 +14°C° 0 mm 1 mps 641 mmHg 92%
    04:00 +14°C° 0 mm 1 mps 641 mmHg 92%
    05:00 +14°C° 0 mm 1 mps 642 mmHg 92%
    06:00 +13°C° 0 mm 1 mps 642 mmHg 92%
    07:00 +16°C° 0 mm 1 mps 643 mmHg 79%
    08:00 +20°C° 0 mm 1 mps 644 mmHg 66%
    09:00 +22°C° 0 mm 1 mps 645 mmHg 53%
    10:00 +25°C° 0 mm 1 mps 646 mmHg 45%
    11:00 +27°C° 0 mm 1 mps 646 mmHg 37%
    12:00 +29°C° 0 mm 2 mps 646 mmHg 29%
    13:00 +29°C° 0 mm 2 mps 645 mmHg 30%
    14:00 +28°C° 0 mm 2 mps 645 mmHg 30%
    15:00 +28°C° 0 mm 2 mps 644 mmHg 31%
    16:00 +26°C° 0 mm 2 mps 643 mmHg 39%
    17:00 +24°C° 0 mm 2 mps 643 mmHg 47%
    18:00 +22°C° 0 mm 1 mps 643 mmHg 55%
    19:00 +20°C° 0 mm 1 mps 643 mmHg 64%
    20:00 +19°C° 0 mm 1 mps 643 mmHg 72%
    21:00 +16°C° 0 mm 1 mps 643 mmHg 80%
    22:00 +16°C° 0 mm 1 mps 643 mmHg 83%
    23:00 +15°C° 0 mm 1 mps 643 mmHg 85%
    Show more